Weather in Mana

Russia / Krasnoyarsk Krai     54°57′25″N   93°57′15″E
temp.,
°C
wind,
m/s
gust,
m/s
humid.,
%
clouds,
%
prec.,
mm/h
press.,
hPa
HPBL,
m
8 may, sat
sat801:00+7w398679 2.0 1012404
04:00+6sw288894 0.3 1013187
07:00+8wsw497099 0.6 10131049
10:00+10w6115953 0.7 10131600
13:00+10wnw6105597 1.7 10121806
16:00+10w5115197 0.4 10122393
19:00+8w3959100 0.8 10131410
22:00+5w1281100 0.3 1014206
9 may, sun
sun901:00+3nw2399100 6.9 1014413
04:00+3ssw1698100 1.9 1014360
07:00+3ssw1698100 2.9 1014534
10:00+2wnw3798100 2.8 1015481
13:00+4wnw4675100 3.9 10151226
16:00+4nw3473100 1.1 1016998
19:00+3nw1381100 2.4 1018668
22:00+1wnw119486 0.7 102016
10 may, mon
mon1001:000nw11100100 1.1 1021109
04:000nw119699 0.2 1022208
07:00+1w1196100 0.5 1022189
10:00+2nw1197100 0.4 1023137
13:00+7nne237099 0.6 10221179
16:00+7nne237131 0.3 10221016
19:00+6ne24765 0.3 1021480
22:00+1e11940 0.0 102211
11 may, tue
tue1101:000ese11940 0.0 102111
04:00−2se21954 0.0 102016
07:00+2e12794 0.0 1018217
10:00+9ene22540 0.0 1016773
13:00+12ne43475 0.0 10141313
16:00+12ne44466 0.0 10131522
19:00+10ne47565 0.0 1013790
22:00+5ene41272100 0.0 1015458
12 may, wed
wed1201:00+2ne22885 0.0 101628
04:000ne229899 0.0 101658
07:00+3ne2684100 0.1 1016807
10:00+3ne3684100 0.1 1016868
13:00+5ne467068 0.2 1016957
16:00+5ne587160 0.3 10161060
19:00+5ne47555 0.4 10171553
22:000ne22751 0.0 102012